Latest Coastal Weather Observations for Christmas Island

IDW60701

Issued at 2:32 pm WST Friday 27 May 2016 (issued every 10 minutes, with the page automatically refreshed every 10 minutes)

About coastal observations | Map of coastal stations | Coastal observations for WA | Marine services | Other Formats
Station Details ID: 200790 Name: CHRISTMAS ISLAND AERO Lat: -10.45 Lon: 105.69 Height: 261.0 m
Data from the previous 72 hours. | See also: Recent months at Christmas Island
Date/Time
WST
Temp

°C
Wind Pressure Rain
since 9am
mm
Weather Cloud Vis
km
Sea
Height
m
Swell
Dir
 
Speed
knots
Gust
knots
hPa Trend Height
m
Period
s
Dir
27/02:30pm 27.5 ESE 11 15 1013.6 - 0.0 - Partly cloudy 10 - - - -
27/02:25pm 27.7 ESE 11 15 1013.6 - 0.0 - Partly cloudy 10 - - - -
27/02:00pm 27.4 ESE 11 17 1013.8 - 0.0 - Partly cloudy 10 - - - -
27/01:56pm 27.5 ESE 10 14 1013.9 - 0.0 - Partly cloudy 10 - - - -
27/01:41pm 27.7 ESE 11 15 1014.0 - 0.0 - Partly cloudy 10 - - - -
27/01:30pm 27.2 ESE 11 16 1014.0 - 0.0 - Partly cloudy 10 - - - -
27/01:00pm 28.0 ESE 11 14 1012.7 - 0.0 - Partly cloudy 10 - - - -
27/12:33pm 27.6 ESE 11 16 1014.6 - 0.0 - Partly cloudy 10 - - - -
27/12:30pm 27.4 ESE 11 16 1014.6 - 0.0 - Partly cloudy 10 - - - -
27/12:29pm 27.5 ESE 10 16 1014.6 - 0.0 - Partly cloudy 10 - - - -
27/12:18pm 27.6 ESE 10 15 1014.6 - 0.0 - Partly cloudy 10 - - - -
27/12:15pm 27.7 ESE 10 14 1014.7 - 0.0 - Partly cloudy 10 - - - -
27/12:00pm 27.8 ESE 10 13 1014.9 - 0.0 - Partly cloudy 10 - - - -
27/11:34am 27.4 ESE 10 13 1015.1 - 0.0 - Partly cloudy 10 - - - -
27/11:30am 27.4 ESE 11 14 1015.2 - 0.0 - Partly cloudy 10 - - - -
27/11:22am 27.4 E 9 14 1015.3 - 0.0 - Partly cloudy 10 - - - -
27/11:00am 27.3 ESE 9 13 1015.7 - 0.0 - Partly cloudy 10 - - - -
27/10:30am 27.2 ESE 9 12 1015.8 - 0.0 - Partly cloudy 10 - - - -
27/10:00am 27.0 ESE 9 12 1014.1 - - - Cloudy 10 - - - -
27/09:30am 26.7 ESE 9 14 1015.5 - - - Partly cloudy 10 - - - -
27/09:00am 26.4 ESE 8 11 1015.5 - - - Partly cloudy 10 - - - -
27/08:49am 26.3 ESE 10 14 1015.3 - - - Partly cloudy 10 - - - -
27/08:30am 26.2 ESE 9 11 1015.1 - - - Partly cloudy 10 - - - -
27/08:00am 26.0 ESE 9 12 1014.7 - - - Partly cloudy 10 - - - -
27/07:30am 25.9 ESE 9 14 1014.4 - - - Partly cloudy 10 - - - -
27/07:20am 25.8 ESE 9 14 1014.4 - - - Partly cloudy 10 - - - -
27/07:00am 25.9 ESE 10 13 1012.7 - - - Cloudy 10 - - - -
27/06:30am 25.8 ESE 9 13 1014.1 - - - Partly cloudy 10 - - - -
27/06:00am 26.0 ESE 8 12 1013.8 - - - Partly cloudy 10 - - - -
27/05:30am 25.9 ESE 8 11 1013.6 - - - Partly cloudy 10 - - - -
27/05:04am 26.1 ESE 9 14 1013.5 - - - Partly cloudy 10 - - - -
27/05:00am 26.0 ESE 10 13 1013.4 - - - Partly cloudy 10 - - - -
27/04:42am 25.8 ESE 9 13 1013.5 - - - Partly cloudy 10 - - - -
27/04:30am 26.0 ESE 10 13 1013.4 - - - Partly cloudy 10 - - - -
27/04:00am 26.0 ESE 10 13 1011.9 - - - Cloudy 10 - - - -
27/03:30am 25.7 ESE 9 13 1013.5 - - - Partly cloudy 10 - - - -
27/03:00am 26.0 ESE 10 13 1013.8 - - - Partly cloudy 10 - - - -
27/02:30am 26.1 ESE 11 14 1014.4 - - - Partly cloudy 10 - - - -
27/02:00am 26.1 ESE 10 14 1014.6 - - - Partly cloudy 10 - - - -
27/01:30am 26.2 ESE 9 12 1014.7 - - - Partly cloudy 10 - - - -
27/01:00am 26.0 ESE 9 13 1013.4 - - - Partly cloudy 10 - - - -
27/12:30am 26.1 ESE 9 14 1014.8 - - - Partly cloudy 10 - - - -
27/12:17am 26.1 ESE 10 14 1014.8 - - - Partly cloudy 10 - - - -
27/12:00am 26.1 ESE 8 13 1014.9 - - - Partly cloudy 10 - - - -
 
Date/Time
WST
Temp

°C
Wind Pressure Rain
since 9am
mm
Weather Cloud Vis
km
Sea
Height
m
Swell
Dir
 
Speed
knots
Gust
knots
hPa Trend Height
m
Period
s
Dir
26/11:47pm 26.2 ESE 10 14 1015.0 - - - Partly cloudy 10 - - - -
26/11:30pm 26.2 ESE 9 14 1015.0 - - - Partly cloudy 10 - - - -
26/11:00pm 26.2 ESE 9 12 1015.1 - - - Partly cloudy 10 - - - -
26/10:30pm 26.2 ESE 9 11 1015.0 - - - Partly cloudy 10 - - - -
26/10:00pm 26.2 ESE 10 15 1013.2 - 0.0 - Cloudy 10 - - - -
26/09:30pm 26.3 ESE 10 14 1014.4 - - - Partly cloudy 10 - - - -
26/09:24pm 26.3 ESE 9 14 1014.4 - - - Partly cloudy 10 - - - -
26/09:00pm 26.2 ESE 10 13 1014.3 - - - Partly cloudy 10 - - - -
26/08:30pm 26.2 ESE 9 14 1013.8 - - - Partly cloudy 10 - - - -
26/08:00pm 26.3 ESE 9 14 1013.5 - - - Cloudy 10 - - - -
26/07:30pm 26.4 ESE 9 13 1013.2 - - - Partly cloudy 10 - - - -
26/07:00pm 26.5 E 9 14 1011.3 - - - Partly cloudy 10 - - - -
26/06:30pm 26.7 E 8 14 1012.7 - - - Partly cloudy 10 - - - -
26/06:00pm 26.8 E 9 15 1012.6 - - - Partly cloudy 10 - - - -
26/05:30pm 27.2 E 10 15 1012.6 - - - Partly cloudy 10 - - - -
26/05:00pm 27.5 E 10 13 1012.3 - - - Partly cloudy 10 - - - -
26/01:30pm 27.8 ESE 10 16 1013.3 - 0.0 - Partly cloudy 10 - - - -
26/01:00pm 28.4 E 10 15 1012.1 - 0.0 - Cloudy 10 - - - -
26/12:30pm 27.9 E 9 14 1014.1 - 0.0 - Partly cloudy 10 - - - -
26/12:28pm 27.9 ESE 9 14 1014.1 - 0.0 - Partly cloudy 10 - - - -
26/12:00pm 28.2 E 9 14 1014.5 - 0.0 - Partly cloudy 10 - - - -
26/11:30am 28.0 E 9 14 1014.6 - 0.0 - Partly cloudy 10 - - - -
26/11:00am 28.0 E 11 16 1014.7 - 0.0 - Partly cloudy 10 - - - -
26/10:43am 27.9 E 10 14 1014.7 - 0.0 - Partly cloudy 10 - - - -
26/10:30am 27.4 ESE 9 15 1014.7 - 0.0 - Partly cloudy 10 - - - -
26/10:00am 27.2 ESE 10 13 1013.0 - 0.0 - Cloudy 10 - - - -
26/09:34am 27.3 ESE 9 13 1014.4 - 0.0 - Partly cloudy 10 - - - -
26/09:30am 27.4 ESE 9 12 1014.4 - 0.0 - Partly cloudy 10 - - - -
26/09:00am 26.6 ESE 9 12 1014.3 - 0.0 - Partly cloudy 10 - - - -
26/08:30am 26.4 ESE 9 13 1013.7 - 0.0 - Partly cloudy 10 - - - -
26/08:11am 26.2 ESE 8 13 1013.6 - 0.0 - Partly cloudy 10 - - - -
26/08:00am 26.2 ESE 9 13 1013.6 - 0.0 - Partly cloudy 10 - - - -
26/07:30am 25.7 ESE 8 13 1013.1 - 0.0 - Partly cloudy 10 - - - -
26/07:00am 25.7 ESE 7 11 1011.4 - 0.0 - Cloudy 10 - - - -
26/06:54am 25.6 ESE 8 11 1013.0 - 0.0 - Partly cloudy 10 - - - -
26/06:30am 25.5 ESE 7 11 1013.0 - 0.0 - Partly cloudy 10 - - - -
26/06:11am 25.5 ESE 7 10 1012.7 - 0.0 - Partly cloudy 10 - - - -
26/06:00am 25.5 ESE 8 10 1012.6 - 0.0 - Partly cloudy 10 - - - -
26/05:30am 25.4 ESE 7 11 1012.4 - 0.0 - Partly cloudy 10 - - - -
26/05:16am 25.4 ESE 6 8 1012.4 - 0.0 - Partly cloudy 10 - - - -
26/05:00am 25.4 ESE 7 11 1012.3 - 0.0 - Partly cloudy 10 - - - -
26/04:54am 25.5 ESE 8 11 1012.3 - 0.0 - Partly cloudy 10 - - - -
26/04:44am 25.3 ESE 8 11 1012.5 - 0.0 - Partly cloudy 10 - - - -
26/04:30am 25.3 SE 7 11 1012.6 - 0.0 - Partly cloudy 10 - - - -
26/04:01am 25.4 ESE 7 11 1012.6 - 0.0 - Partly cloudy 10 - - - -
26/04:00am 25.3 ESE 7 11 1010.9 - 0.0 - Partly cloudy 10 - - - -
26/03:30am 25.4 SE 7 11 1012.9 - 0.0 - Partly cloudy 10 - - - -
26/03:02am 25.3 SE 6 9 1012.9 - 0.0 - Partly cloudy 10 - - - -
26/03:00am 25.3 SE 6 9 1012.9 - 0.0 - Partly cloudy 10 - - - -
26/02:30am 25.2 SE 6 9 1013.2 - 0.0 - Partly cloudy 10 - - - -
26/02:27am 25.3 SE 6 9 1013.2 - 0.0 - Partly cloudy 10 - - - -
26/02:00am 25.4 SE 6 8 1013.4 - 0.0 - Partly cloudy 10 - - - -
26/01:30am 25.3 SE 6 8 1013.5 - 0.0 - Partly cloudy 10 - - - -
26/01:00am 25.4 SE 6 8 1012.4 - 0.0 - Cloudy 10 - - - -
26/12:30am 25.4 SE 5 8 1014.3 - 0.0 - Partly cloudy 10 - - - -
26/12:00am 25.4 SE 6 9 1014.3 - 0.0 - Partly cloudy 10 - - - -
 
Date/Time
WST
Temp

°C
Wind Pressure Rain
since 9am
mm
Weather Cloud Vis
km
Sea
Height
m
Swell
Dir
 
Speed
knots
Gust
knots
hPa Trend Height
m
Period
s
Dir
25/11:30pm 25.3 SE 5 8 1014.1 - 0.0 - Partly cloudy 10 - - - -
25/11:00pm 25.5 SE 6 9 1014.1 - 0.0 - Partly cloudy 10 - - - -
25/10:30pm 25.5 SE 6 8 1014.0 - 0.0 - Partly cloudy 10 - - - -
25/10:00pm 25.3 SE 6 9 1012.2 - 0.0 - Mostly clear 10 - - - -
25/09:30pm 25.2 SE 6 8 1013.6 - 0.0 - - 10 - - - -
25/09:00pm 25.3 SE 6 9 1013.6 - 0.0 - Partly cloudy 10 - - - -
25/08:30pm 25.1 SE 6 9 1013.3 - 0.0 - Partly cloudy 10 - - - -
25/08:00pm 25.3 ESE 6 9 1013.0 - 0.0 - Partly cloudy 10 - - - -
25/07:30pm 25.6 ESE 7 9 1012.5 - 0.0 - Partly cloudy 10 - - - -
25/07:00pm 25.5 ESE 7 8 1010.8 - 0.0 - Mostly cloudy 10 - - - -
25/06:30pm 25.7 ESE 7 10 1012.4 - 0.0 - Partly cloudy 10 - - - -
25/06:00pm 26.3 ESE 7 11 1012.2 - 0.0 - Partly cloudy 10 - - - -
25/05:30pm 26.4 SE 9 11 1011.8 - 0.0 - Partly cloudy 10 - - - -
25/05:00pm 26.7 ESE 9 12 1011.6 - 0.0 - Partly cloudy 10 - - - -
25/04:30pm 27.1 SE 8 11 1011.5 - 0.0 - Partly cloudy 10 - - - -
25/04:00pm 27.2 ESE 8 11 1010.0 - 0.0 - Partly cloudy 10 - - - -
25/03:30pm 27.2 ESE 9 12 1011.6 - 0.0 - Partly cloudy 10 - - - -
25/03:00pm 26.9 ESE 9 12 1011.7 - 0.0 - Partly cloudy 10 - - - -
25/02:30pm 27.1 ESE 9 12 1012.2 - 0.0 - Partly cloudy 10 - - - -
25/02:00pm 27.3 SE 8 12 1012.4 - 0.0 - Partly cloudy 10 - - - -
25/01:43pm 27.1 SE 8 13 1012.6 - 0.0 - Partly cloudy 10 - - - -
25/01:30pm 27.4 ESE 9 13 1012.7 - 0.0 - Partly cloudy 10 - - - -
25/01:25pm 27.1 SE 9 12 1012.8 - 0.0 - Partly cloudy 10 - - - -
25/01:00pm 27.4 ESE 9 13 1011.4 - 0.0 - Cloudy 10 - - - -
25/12:30pm 27.0 ESE 10 14 1013.4 - 0.0 - Partly cloudy - - - - -
25/12:00pm 27.2 ESE 10 13 1013.6 - 0.0 - Partly cloudy 10 - - - -
25/11:30am 27.0 SE 9 12 1013.8 - 0.0 - Partly cloudy 10 - - - -
25/11:00am 26.6 ESE 9 10 1014.2 - 0.0 - Partly cloudy 10 - - - -
25/10:30am 27.0 ESE 9 13 1014.2 - 0.0 - Partly cloudy - - - - -
25/10:00am 26.8 SE 9 13 1012.5 - 0.2 - Mostly clear 10 - - - -
25/09:30am 26.8 SE 9 14 1014.1 - 0.2 - - 10 - - - -
25/09:00am 26.8 SE 8 12 1013.8 - 0.2 - Partly cloudy 10 - - - -
25/08:30am 26.4 SE 8 11 1013.5 - 0.2 - Partly cloudy 10 - - - -
25/08:00am 25.4 SE 8 12 1013.4 - 0.2 - Partly cloudy 10 - - - -
25/07:30am 25.1 SE 8 11 1013.2 - 0.2 - Partly cloudy 10 - - - -
25/07:04am 25.0 SE 8 11 1013.2 - 0.2 - Partly cloudy 10 - - - -
25/07:00am 25.0 SE 7 10 1011.6 - 0.2 - Mostly clear 10 - - - -
25/06:40am 25.2 SE 8 11 1013.0 - 0.2 - Partly cloudy 10 - - - -
25/06:39am 25.2 SE 8 12 1013.0 - 0.2 - Partly cloudy 10 - - - -
25/06:30am 25.2 SE 8 12 1012.9 - 0.2 - Partly cloudy 10 - - - -
25/06:20am 25.4 SE 9 13 1012.8 - 0.2 - Partly cloudy 10 - - - -
25/06:00am 25.3 SE 9 13 1012.9 - 0.2 - Partly cloudy 10 - - - -
25/05:37am 25.3 SE 7 10 1012.8 - 0.2 - Partly cloudy 10 - - - -
25/05:30am 25.3 SE 8 11 1012.7 - 0.2 - Partly cloudy 10 - - - -
25/05:00am 25.4 ESE 7 11 1012.5 - 0.2 - Partly cloudy 10 - - - -
25/04:30am 25.4 SE 8 12 1012.4 - 0.2 - Partly cloudy 10 - - - -
25/04:00am 25.5 SE 8 13 1010.7 - 0.2 - Mostly cloudy 10 - - - -
25/03:30am 25.3 SE 8 13 1012.6 - 0.2 - Partly cloudy 10 - - - -
25/03:00am 25.5 SE 8 14 1012.8 - 0.2 - Partly cloudy 10 - - - -
25/02:30am 25.5 SE 9 13 1013.0 - 0.2 - Partly cloudy 10 - - - -
25/02:00am 25.6 SE 10 13 1012.9 - 0.2 - Partly cloudy 10 - - - -
25/01:30am 25.7 ESE 9 15 1013.1 - 0.2 - Partly cloudy 10 - - - -
25/01:09am 25.8 ESE 9 15 1013.2 - 0.2 - Partly cloudy 10 - - - -
25/01:00am 25.7 ESE 10 17 1011.8 - 0.2 - Cloudy 10 - - - -
25/12:30am 25.8 SE 10 14 1013.6 - 0.2 - Partly cloudy 10 - - - -
25/12:00am 25.8 SE 11 16 1013.4 - 0.2 - Partly cloudy 10 - - - -
 
Date/Time
WST
Temp

°C
Wind Pressure Rain
since 9am
mm
Weather Cloud Vis
km
Sea
Height
m
Swell
Dir
 
Speed
knots
Gust
knots
hPa Trend Height
m
Period
s
Dir
24/11:30pm 25.9 SE 9 12 1013.6 - 0.2 - Partly cloudy 10 - - - -
24/11:00pm 25.8 SE 9 15 1013.8 - 0.2 - Partly cloudy 10 - - - -
24/10:30pm 26.0 SE 11 16 1013.7 - 0.2 - Partly cloudy 10 - - - -
24/10:00pm 26.0 SE 10 15 1012.3 - 0.2 - Cloudy 10 - - - -
24/09:30pm 26.0 SE 10 13 1013.9 - 0.2 - Partly cloudy 10 - - - -
24/09:00pm 26.1 SE 9 14 1013.7 - 0.2 - Partly cloudy 10 - - - -
24/08:30pm 26.1 ESE 9 13 1013.6 - 0.2 - Partly cloudy 10 - - - -
24/08:05pm 26.2 SE 10 13 1013.3 - 0.2 - Partly cloudy 10 - - - -
24/08:03pm 26.2 ESE 10 13 1013.3 - 0.2 - Partly cloudy 10 - - - -
24/08:00pm 26.2 ESE 9 13 1013.2 - 0.2 - Partly cloudy 10 - - - -
24/07:30pm 26.2 ESE 8 11 1012.9 - 0.2 - Partly cloudy 10 - - - -
24/07:16pm 26.1 ESE 8 13 1012.9 - 0.2 - Partly cloudy 10 - - - -
24/07:13pm 26.1 SE 8 11 1012.8 - 0.2 - Partly cloudy 10 - - - -
24/07:00pm 26.2 ESE 8 13 1011.2 - 0.2 - Cloudy 10 - - - -
24/06:35pm 26.2 SE 8 11 1012.8 - 0.2 - Partly cloudy 10 - - - -
24/06:31pm 26.2 SE 8 12 1012.7 - 0.2 - Partly cloudy 10 - - - -
24/06:30pm 26.2 SE 8 12 1012.7 - 0.2 - Partly cloudy 10 - - - -
24/06:09pm 26.7 SE 8 11 1012.7 - 0.2 - Partly cloudy 10 - - - -
24/06:00pm 26.8 SE 8 12 1012.7 - 0.2 - Partly cloudy 10 - - - -
24/05:30pm 27.0 SE 8 11 1012.6 - 0.2 - Partly cloudy 10 - - - -
24/05:29pm 26.9 SE 8 11 1012.6 - 0.2 - Partly cloudy 10 - - - -
24/05:00pm 26.6 ESE 9 16 1012.5 - 0.2 - Partly cloudy 10 - - - -
24/04:30pm 27.0 SE 10 14 1012.2 - 0.2 - Partly cloudy 10 - - - -
24/04:00pm 27.1 SE 8 13 1010.7 - 0.2 - Cloudy 10 - - - -

Other Formats:

Comma delimited format used in spreadsheet applications
http://www.bom.gov.au/fwo/IDW60701/IDW60701.96995.axf

JavaScript Object Notation format (JSON) in row-major order
http://www.bom.gov.au/fwo/IDW60701/IDW60701.96995.json